CGVVD CYXU-CYZR

Flight info

Callsign CGVVD
Flight time N/A
Altitude 8000
Route CYXU/27 DCT ODGEG ODGEG·RNAV/33
Aircraft BE58

Departure

Time N/A
Airport London International Airport (CYXU)

Arrival

Time 2026-05-03 20:34
Airport Chris Hadfield Airport (CYZR)
Time Latitude Longitude Altitude Speed Heading
2026-05-03 20:15 42.96966 -81.85945 7992 ft 153 kts 257°
2026-05-03 20:15 42.96708 -81.87347 7990 ft 152 kts 257°
2026-05-03 20:15 42.96452 -81.88742 7987 ft 151 kts 257°
2026-05-03 20:15 42.96196 -81.90134 7986 ft 151 kts 257°
2026-05-03 20:16 42.95940 -81.91520 7980 ft 151 kts 257°
2026-05-03 20:16 42.95685 -81.92905 7982 ft 151 kts 257°
2026-05-03 20:16 42.95430 -81.94290 7981 ft 150 kts 256°
2026-05-03 20:16 42.95175 -81.95671 7974 ft 150 kts 257°
2026-05-03 20:17 42.94923 -81.97037 7974 ft 144 kts 257°
2026-05-03 20:17 42.94697 -81.98276 7961 ft 125 kts 258°
2026-05-03 20:17 42.94498 -81.99354 7965 ft 110 kts 258°
2026-05-03 20:17 42.94320 -82.00317 7963 ft 99 kts 258°
2026-05-03 20:18 42.94159 -82.01189 7963 ft 91 kts 258°
2026-05-03 20:18 42.94011 -82.01984 7956 ft 82 kts 259°
2026-05-03 20:18 42.93881 -82.02690 7959 ft 78 kts 259°
2026-05-03 20:18 42.93720 -82.03536 7992 ft 102 kts 258°
2026-05-03 20:19 42.93528 -82.04561 7995 ft 119 kts 258°
2026-05-03 20:19 42.93323 -82.05675 7987 ft 122 kts 258°
2026-05-03 20:19 42.93070 -82.06765 7982 ft 121 kts 245°
2026-05-03 20:19 42.92507 -82.07618 7976 ft 117 kts 234°
2026-05-03 20:20 42.91985 -82.08403 7961 ft 105 kts 243°
2026-05-03 20:20 42.91985 -82.09379 7985 ft 120 kts 296°
2026-05-03 20:20 42.92806 -82.09950 7982 ft 154 kts 347°
2026-05-03 20:20 42.93912 -82.09769 7978 ft 163 kts
2026-05-03 20:21 42.94933 -82.09073 7975 ft 169 kts 32°
2026-05-03 20:21 42.95541 -82.07693 7979 ft 172 kts 67°
2026-05-03 20:21 42.96123 -82.06331 7961 ft 162 kts 40°
2026-05-03 20:21 42.96855 -82.05202 7961 ft 160 kts 56°
2026-05-03 20:22 42.96967 -82.03763 7965 ft 150 kts 120°
2026-05-03 20:22 42.96338 -82.02953 7963 ft 106 kts 190°
2026-05-03 20:22 42.95686 -82.03050 7975 ft 98 kts 208°
2026-05-03 20:22 42.95114 -82.03570 7984 ft 105 kts 237°
2026-05-03 20:23 42.94650 -82.04372 7903 ft 108 kts 238°
2026-05-03 20:23 42.94158 -82.05155 7635 ft 110 kts 237°
2026-05-03 20:23 42.93616 -82.05981 7211 ft 122 kts 235°
2026-05-03 20:23 42.93228 -82.06989 6795 ft 124 kts 269°
2026-05-03 20:24 42.93300 -82.08177 6384 ft 128 kts 265°
2026-05-03 20:24 42.93610 -82.09270 6146 ft 134 kts 309°
2026-05-03 20:24 42.94563 -82.09590 5898 ft 161 kts 357°
2026-05-03 20:24 42.95564 -82.08752 5650 ft 181 kts 43°
2026-05-03 20:25 42.96194 -82.07259 5364 ft 185 kts 78°
2026-05-03 20:25 42.96036 -82.05581 5059 ft 176 kts 128°
2026-05-03 20:25 42.95210 -82.04592 4751 ft 142 kts 177°
2026-05-03 20:25 42.94403 -82.04753 4438 ft 109 kts 230°
2026-05-03 20:26 42.93898 -82.05575 4159 ft 118 kts 233°
2026-05-03 20:26 42.93327 -82.06415 3922 ft 130 kts 232°
2026-05-03 20:26 42.92768 -82.07547 3709 ft 156 kts 252°
2026-05-03 20:26 42.92402 -82.08963 3665 ft 151 kts 252°
2026-05-03 20:27 42.92105 -82.10273 3525 ft 141 kts 255°
2026-05-03 20:27 42.91925 -82.11656 3475 ft 155 kts 261°
2026-05-03 20:27 42.91869 -82.13167 3523 ft 161 kts 265°
2026-05-03 20:27 42.91861 -82.14692 3583 ft 165 kts 267°
2026-05-03 20:28 42.91931 -82.16281 3585 ft 170 kts 271°
2026-05-03 20:28 42.92094 -82.17892 3640 ft 170 kts 276°
2026-05-03 20:28 42.92373 -82.19492 3568 ft 177 kts 280°
2026-05-03 20:28 42.92719 -82.21121 3422 ft 174 kts 281°
2026-05-03 20:29 42.93052 -82.22608 2997 ft 159 kts 281°
2026-05-03 20:29 42.93538 -82.23889 2751 ft 150 kts 303°
2026-05-03 20:29 42.94378 -82.24741 2416 ft 150 kts 314°
2026-05-03 20:29 42.95226 -82.25555 2252 ft 146 kts 314°
2026-05-03 20:30 42.96047 -82.26336 2074 ft 143 kts 313°
2026-05-03 20:30 42.96857 -82.27126 1996 ft 143 kts 314°
2026-05-03 20:30 42.97664 -82.27907 1978 ft 142 kts 310°
2026-05-03 20:30 42.98419 -82.28740 1999 ft 138 kts 308°
2026-05-03 20:31 42.99156 -82.29605 2096 ft 143 kts 310°
2026-05-03 20:31 42.99935 -82.30428 2180 ft 141 kts 320°
2026-05-03 20:31 43.00879 -82.30728 2223 ft 134 kts 332°
2026-05-03 20:31 43.01383 -82.31390 2052 ft 94 kts 266°
2026-05-03 20:32 43.00934 -82.31994 1743 ft 120 kts 192°
2026-05-03 20:32 43.00089 -82.31415 1567 ft 144 kts 154°
2026-05-03 20:32 42.99385 -82.30396 1580 ft 157 kts 118°
2026-05-03 20:32 42.99485 -82.28978 1432 ft 157 kts 51°
2026-05-03 20:33 43.00146 -82.27745 1495 ft 159 kts 37°
2026-05-03 20:33 43.00985 -82.27556 1425 ft 115 kts 306°
2026-05-03 20:33 43.01407 -82.28485 1266 ft 121 kts 271°
2026-05-03 20:33 43.01119 -82.29343 1063 ft 89 kts 224°
2026-05-03 20:34 43.00668 -82.29905 794 ft 91 kts 232°
2026-05-03 20:34 43.00270 -82.30477 598 ft 73 kts 229°
2026-05-03 20:34 43.00023 -82.30830 593 ft 30 kts 225°
2026-05-03 20:34 42.99929 -82.30884 595 ft 17 kts 152°
2026-05-03 20:35 42.99851 -82.30791 595 ft 0 kts 136°